KI5NYZ-13 Weather Reports


Display with metric or nautical units.
time (UTC)temp
F
wind
direction
speed
MPH
gust
MPH
rain 1hr
in
rain 24hr
in
rain mn
in
humidity
%
barometer
mb
20220118092406 39 252 5.0 5.0 0.00 0.00 0.00 32 1013.9
20220118091405 39 251 5.0 5.0 0.00 0.00 0.00 32 1014.1
20220118090404 39 255 4.0 4.0 0.00 0.00 0.00 32 1014.2
20220118085403 39 249 1.0 1.0 0.00 0.00 0.00 33 1014.2
20220118084402 39 251 1.0 1.0 0.00 0.00 0.00 33 1014.2
20220118083401 40 243 1.0 2.0 0.00 0.00 0.00 31 1014.1
20220118082400 40 248 2.0 2.0 0.00 0.00 0.00 30 1013.9
20220118081359 41 247 1.0 2.0 0.00 0.00 0.00 29 1013.9
20220118080358 41 252 2.0 2.0 0.00 0.00 0.00 29 1014.0
20220118075357 41 262 2.0 2.0 0.00 0.00 0.00 29 1014.0
20220118074356 41 256 2.0 2.0 0.00 0.00 0.00 30 1014.0
20220118073355 41 254 3.0 3.0 0.00 0.00 0.00 30 1014.1
20220118072354 41 245 3.0 3.0 0.00 0.00 0.00 29 1014.2
20220118071353 40 240 3.0 3.0 0.00 0.00 0.00 29 1014.5
20220118070352 40 241 1.0 2.0 0.00 0.00 0.00 31 1014.6
20220118065351 41 241 2.0 2.0 0.00 0.00 0.00 30 1014.8
20220118064350 41 243 2.0 2.0 0.00 0.00 0.00 30 1014.7
20220118063349 41 245 2.0 2.0 0.00 0.00 0.00 29 1014.7
20220118062348 41 244 1.0 1.0 0.00 0.00 0.00 28 1014.9
20220118061347 41 248 1.0 2.0 0.00 0.00 0.00 28 1014.9
20220118060346 41 244 2.0 2.0 0.00 0.00 0.00 28 1014.9
20220118055345 42 239 2.0 3.0 0.00 0.00 0.00 29 1014.9
20220118054344 41 251 3.0 3.0 0.00 0.00 0.00 29 1015.1
20220118053343 42 248 2.0 2.0 0.00 0.00 0.00 29 1015.1
20220118052342 42 259 3.0 3.0 0.00 0.00 0.00 28 1015.0
20220118051341 42 273 3.0 3.0 0.00 0.00 0.00 28 1015.1
20220118050340 42 272 2.0 3.0 0.00 0.00 0.00 28 1015.1
20220118045339 43 270 3.0 3.0 0.00 0.00 0.00 28 1014.9
20220118044338 44 264 3.0 4.0 0.00 0.00 0.00 27 1014.9
20220118043337 44 260 4.0 4.0 0.00 0.00 0.00 28 1015.0
20220118042336 44 259 2.0 3.0 0.00 0.00 0.00 28 1015.0
20220118041335 44 259 3.0 4.0 0.00 0.00 0.00 27 1014.9
20220118040334 45 258 3.0 3.0 0.00 0.00 0.00 28 1014.7
20220118035333 46 259 4.0 4.0 0.00 0.00 0.00 27 1014.6
20220118034332 46 254 3.0 3.0 0.00 0.00 0.00 26 1014.6
20220118033331 46 255 4.0 4.0 0.00 0.00 0.00 26 1014.5
20220118032330 46 254 3.0 3.0 0.00 0.00 0.00 26 1014.7
20220118031329 45 259 3.0 4.0 0.00 0.00 0.00 27 1014.8
20220118030328 45 259 4.0 4.0 0.00 0.00 0.00 27 1014.7
20220118025327 45 263 3.0 3.0 0.00 0.00 0.00 26 1014.7
20220118024326 46 260 2.0 3.0 0.00 0.00 0.00 26 1014.7
20220118023325 46 255 2.0 2.0 0.00 0.00 0.00 25 1014.5
20220118022324 46 252 2.0 2.0 0.00 0.00 0.00 24 1014.6
20220118021323 45 254 1.0 1.0 0.00 0.00 0.00 24 1014.7
20220118020322 45 276 0.0 0.0 0.00 0.00 0.00 26 1014.7
20220118015321 47 269 0.0 0.0 0.00 0.00 0.00 25 1014.2
20220118014320 49 175 0.0 0.0 0.00 0.00 0.00 24 1013.9
20220118013319 51 236 1.0 1.0 0.00 0.00 0.00 21 1013.4
20220118012318 52 233 1.0 1.0 0.00 0.00 0.00 21 1013.0
20220118011317 53 255 1.0 1.0 0.00 0.00 0.00 19 1012.7
20220118010316 53 269 0.0 0.0 0.00 0.00 0.00 19 1012.6
20220118005315 54 275 1.0 1.0 0.00 0.00 0.00 19 1012.4
20220118004314 55 235 1.0 1.0 0.00 0.00 0.00 19 1012.2
20220118003313 56 209 1.0 1.0 0.00 0.00 0.00 19 1012.0
20220118002312 57 207 1.0 1.0 0.00 0.00 0.00 18 1011.7
20220118001311 59 203 1.0 2.0 0.00 0.00 0.00 17 1011.5
20220118000310 60 206 2.0 2.0 0.00 0.00 0.00 16 1011.2
20220117235309 61 210 1.0 2.0 0.00 0.00 0.00 15 1011.0
20220117234308 62 208 2.0 2.0 0.00 0.00 0.00 15 1010.9
20220117233307 61 205 2.0 2.0 0.00 0.00 0.00 15 1011.0
20220117232306 61 204 2.0 2.0 0.00 0.00 0.00 16 1011.2
20220117231305 62 205 2.0 2.0 0.00 0.00 0.00 15 1011.6
20220117230304 62 210 1.0 2.0 0.00 0.00 0.00 15 1011.5
20220117225306 62 204 2.0 2.0 0.00 0.00 0.00 15 1011.4
20220117224302 62 210 2.0 2.0 0.00 0.00 0.00 15 1011.5
20220117223301 62 207 3.0 3.0 0.00 0.00 0.00 15 1011.6
20220117222300 63 205 3.0 3.0 0.00 0.00 0.00 15 1011.6
20220117221259 63 212 2.0 3.0 0.00 0.00 0.00 14 1011.4
20220117220258 64 206 3.0 3.0 0.00 0.00 0.00 14 1011.3
20220117215257 64 208 3.0 4.0 0.00 0.00 0.00 14 1011.3
20220117214256 65 205 4.0 4.0 0.00 0.00 0.00 14 1011.3
20220117213255 65 210 3.0 3.0 0.00 0.00 0.00 14 1011.3
20220117212254 65 210 3.0 4.0 0.00 0.00 0.00 14 1011.2
20220117211253 64 213 3.0 4.0 0.00 0.00 0.00 14 1011.6
20220117210252 64 207 3.0 3.0 0.00 0.00 0.00 15 1011.8
20220117205251 63 211 2.0 3.0 0.00 0.00 0.00 15 1012.0
20220117204250 63 208 3.0 3.0 0.00 0.00 0.00 16 1012.1
20220117203249 63 203 3.0 3.0 0.00 0.00 0.00 16 1012.5
20220117202248 62 204 3.0 3.0 0.00 0.00 0.00 17 1012.9
20220117201247 62 208 3.0 3.0 0.00 0.00 0.00 17 1013.0
20220117200246 62 198 3.0 3.0 0.00 0.00 0.00 17 1013.1
20220117195245 61 196 2.0 3.0 0.00 0.00 0.00 17 1013.9
20220117194244 61 202 2.0 3.0 0.00 0.00 0.00 17 1015.2
20220117193243 61 211 3.0 3.0 0.00 0.00 0.00 17 1014.5
20220117192242 60 205 3.0 3.0 0.00 0.00 0.00 18 1014.8
20220117191241 60 199 4.0 4.0 0.00 0.00 0.00 18 1015.1
20220117190240 59 192 3.0 7.0 0.00 0.00 0.00 18 1015.5
20220117185239 59 203 4.0 10.0 0.00 0.00 0.00 19 1016.0
20220117184238 58 208 3.0 9.0 0.00 0.00 0.00 19 1016.5
20220117183237 58 206 3.0 9.0 0.00 0.00 0.00 19 1016.9
20220117182236 57 210 3.0 7.0 0.00 0.00 0.00 20 1017.2
20220117181235 57 197 3.0 7.0 0.00 0.00 0.00 20 1017.4
20220117180234 57 184 2.0 8.0 0.00 0.00 0.00 20 1017.8
20220117175233 56 190 3.0 10.0 0.00 0.00 0.00 20 1018.0
20220117174232 56 205 2.0 7.0 0.00 0.00 0.00 20 1018.2
20220117173231 55 199 2.0 5.0 0.00 0.00 0.00 21 1018.6
20220117172230 54 207 1.0 4.0 0.00 0.00 0.00 21 1018.9
20220117171229 53 210 2.0 7.0 0.00 0.00 0.00 22 1019.2
20220117170228 52 175 2.0 8.0 0.00 0.00 0.00 23 1019.5
20220117165227 51 193 1.0 4.0 0.00 0.00 0.00 24 1019.8
20220117164226 50 112 2.0 6.0 0.00 0.00 0.00 25 1020.2
20220117163225 49 125 1.0 6.0 0.00 0.00 0.00 25 1020.4
20220117162224 48 135 0.0 3.0 0.00 0.00 0.00 26 1020.8
20220117161223 46 191 0.0 2.0 0.00 0.00 0.00 27 1021.2
20220117160222 46 62 0.0 2.0 0.00 0.00 0.00 27 1021.4
20220117155221 44 182 0.0 2.0 0.00 0.00 0.00 28 1021.9
20220117154220 39 9 0.0 0.0 0.00 0.00 0.00 33 1023.1
20220117153219 37 54 1.0 1.0 0.00 0.00 0.00 35 1023.6
20220117152218 35 34 1.0 1.0 0.00 0.00 0.00 36 1024.0
20220117151217 33 46 2.0 2.0 0.00 0.00 0.00 39 1024.6
20220117150216 31 34 0.0 0.0 0.00 0.00 0.00 43 1025.2
20220117145215 29 340 0.0 0.0 0.00 0.00 0.00 45 1025.6
20220117144214 27 5 0.0 0.0 0.00 0.00 0.00 47 1026.0
20220117143213 25 298 3.0 3.0 0.00 0.00 0.00 50 1026.4
20220117142212 26 321 2.0 2.0 0.00 0.00 0.00 50 1026.4
20220117141211 25 313 2.0 2.0 0.00 0.00 0.00 50 1026.5
20220117140210 24 298 1.0 2.0 0.00 0.00 0.00 52 1026.7
20220117135209 25 322 3.0 3.0 0.00 0.00 0.00 50 1026.7
20220117134208 24 308 2.0 3.0 0.00 0.00 0.00 50 1026.6
20220117133207 24 315 2.0 2.0 0.00 0.00 0.00 51 1026.5
20220117132206 24 300 2.0 3.0 0.00 0.00 0.00 50 1026.3
20220117131205 24 318 2.0 2.0 0.00 0.00 0.00 50 1026.1
20220117130204 25 24 0.0 2.0 0.00 0.00 0.00 48 1025.7
20220117125203 26 332 5.0 5.0 0.00 0.00 0.00 47 1025.4
20220117124202 26 337 4.0 4.0 0.00 0.00 0.00 47 1025.4
20220117123201 27 14 1.0 1.0 0.00 0.00 0.00 46 1025.0
20220117122200 28 327 0.0 0.0 0.00 0.00 0.00 45 1024.7
20220117121159 28 40 0.0 0.0 0.00 0.00 0.00 45 1024.5
20220117120158 28 26 1.0 1.0 0.00 0.00 0.00 46 1024.6
20220117115157 28 48 1.0 1.0 0.00 0.00 0.00 46 1024.5
20220117114156 28 30 1.0 1.0 0.00 0.00 0.00 46 1024.5
20220117113155 28 22 2.0 2.0 0.00 0.00 0.00 46 1024.6
20220117112154 27 26 1.0 1.0 0.00 0.00 0.00 46 1024.7
20220117111153 27 31 1.0 2.0 0.00 0.00 0.00 46 1024.8
20220117110152 27 29 2.0 2.0 0.00 0.00 0.00 47 1025.0
20220117105151 26 32 1.0 1.0 0.00 0.00 0.00 47 1025.1
20220117104150 27 49 1.0 1.0 0.00 0.00 0.00 44 1024.8
20220117103149 29 53 1.0 1.0 0.00 0.00 0.00 41 1024.0
20220117102148 30 331 1.0 2.0 0.00 0.00 0.00 40 1024.0
20220117101147 29 359 1.0 2.0 0.00 0.00 0.00 41 1024.3
20220117100146 28 358 1.0 1.0 0.00 0.00 0.00 42 1024.5
20220117095145 29 355 1.0 2.0 0.00 0.00 0.00 42 1024.4
20220117094144 30 321 2.0 3.0 0.00 0.00 0.00 41 1024.1
20220117093143 32 337 2.0 2.0 0.00 0.00 0.00 39 1023.9